RH
82 83 84 84 85 86 87 88 88 88 88 88 87 87 88 88 89 88 33 21 33 58 46 16 13 11 14 16 17 16 19 24 22 24 39 54 51 44 41 43 45 44 41 38 47
82 83 83 84 84 86 87 88 88 88 89 86 87 88 88 89 86 51 40 55 64 66 20 20 17 12 15 18 15 17 22 19 17 19 23 47 47 45 44 45 44 42 39 40 46
82 82 82 83 83 86 87 88 88 88 88 88 87 88 89 91 46 21 61 61 65 60 20 16 12 12 18 18 16 17 16 14 12 15 15 35 44 41 46 46 42 38 37 50 52
82 81 82 83 84 85 87 87 87 86 86 88 87 87 88 84 19 27 72 75 69 43 16 12 14 14 18 17 16 15 11 10 10 11 14 34 39 41 43 34 34 33 32 50 54
82 82 82 84 85 86 87 88 87 86 87 89 87 86 86 42 20 23 70 66 41 17 16 15 17 19 38 16 14 12 10 9 8 9 9 13 34 38 42 30 35 32 31 40 48
83 82 83 84 86 86 87 90 90 89 87 87 87 86 53 23 13 35 47 33 22 19 16 13 15 16 19 17 14 12 11 10 10 9 9 12 14 30 35 34 35 35 39 39 44
84 83 83 85 86 87 87 91 90 88 85 84 85 69 58 16 26 37 23 22 18 15 14 14 14 18 20 16 14 13 13 12 11 10 8 10 11 12 12 25 35 40 44 50 47
85 85 84 85 88 88 87 89 88 84 85 84 82 76 30 21 30 26 24 18 17 14 18 16 17 22 20 18 15 16 16 19 11 12 9 10 11 8 10 22 34 34 60 73 79
85 86 84 85 89 88 88 88 83 85 82 83 80 70 27 33 26 19 18 16 15 15 16 11 15 17 18 21 20 20 20 19 14 11 10 12 12 9 14 23 46 59 78 81 89
84 86 87 86 90 88 87 87 87 86 78 66 48 42 27 19 19 18 19 16 16 17 18 16 21 22 24 22 22 22 20 30 19 14 14 13 11 11 13 48 69 79 81 84 86
82 86 87 88 90 87 90 84 57 50 59 28 27 23 19 16 16 17 16 16 18 16 21 20 19 20 20 21 20 22 23 22 19 16 16 14 13 10 13 47 76 79 84 87 92
82 83 84 87 86 86 87 54 39 30 36 33 29 23 17 19 21 20 15 19 21 24 22 20 22 18 18 20 21 22 23 20 17 16 16 16 15 13 18 40 64 72 82 90 97
86 86 85 86 87 79 50 34 36 29 35 22 30 29 25 21 23 23 14 19 23 25 21 21 18 15 17 18 19 20 21 19 18 15 17 17 18 18 20 28 53 64 77 83 91
86 86 87 85 71 52 43 33 32 28 36 24 23 22 25 23 23 19 14 18 26 23 26 25 19 17 18 18 18 23 17 15 16 24 24 19 22 20 20 28 53 67 84 83 90
85 86 87 88 39 39 25 36 36 30 41 24 16 15 23 16 19 20 18 19 22 22 24 25 22 23 20 17 16 18 15 17 17 24 27 25 25 21 26 24 48 63 83 81 90
84 86 86 77 76 41 41 35 27 47 53 25 20 21 21 19 18 15 19 18 20 25 26 22 21 20 20 18 16 15 23 28 32 28 32 24 25 24 23 18 22 45 63 80 94
85 84 86 45 27 37 39 37 46 51 28 31 29 25 25 29 28 26 23 38 41 44 38 24 23 22 20 26 22 24 34 40 40 41 37 23 30 23 18 18 16 35 60 76 90
86 86 80 33 37 42 41 41 55 38 33 28 28 29 34 32 32 33 38 42 33 40 56 41 32 26 21 23 23 27 29 40 46 46 31 29 34 22 18 16 20 29 42 70 89
86 58 40 18 20 41 43 61 52 43 33 36 33 39 40 33 36 38 37 37 32 35 66 68 45 30 23 21 21 29 33 26 34 38 42 33 28 22 19 22 36 33 64 79 85
58 46 26 18 30 43 49 50 38 27 32 36 51 44 50 42 40 46 42 30 28 34 46 58 78 40 27 24 25 24 24 33 45 50 50 41 35 30 24 22 30 47 66 82 83
55 29 20 20 38 36 51 40 27 22 33 39 43 45 42 43 48 46 42 31 25 36 41 42 74 60 41 36 34 35 38 35 36 44 43 44 38 32 27 26 36 61 76 85 90
42 33 17 30 40 53 47 31 36 26 32 33 38 34 46 41 52 45 42 34 26 31 45 48 62 90 58 35 39 42 63 76 80 64 60 55 47 44 70 73 65 78 86 89 81
39 44 30 35 47 58 34 28 27 26 30 36 38 35 40 39 43 44 40 29 30 33 41 43 54 60 44 54 52 58 48 48 73 85 79 68 49 43 76 83 84 88 86 87 86
47 48 48 37 50 46 42 36 34 30 32 31 32 35 39 44 43 48 48 39 36 34 37 41 69 91 62 57 55 47 46 38 71 94 81 70 61 44 62 84 92 90 88 88 87
56 56 57 41 42 41 40 41 42 42 36 40 44 44 44 67 64 62 53 47 40 36 43 45 65 57 44 39 42 41 39 32 48 56 73 57 57 62 72 73 70 88 89 89 90
70 47 47 45 41 47 59 56 56 46 50 53 62 53 57 71 64 70 59 62 57 48 54 55 66 58 62 50 46 50 44 44 41 37 50 52 56 68 71 70 72 93 89 88 85
88 77 50 57 55 63 66 61 60 53 50 52 59 61 67 58 54 56 58 59 57 63 63 62 76 83 79 53 54 62 39 44 40 85 88 74 89 86 83 76 93 87 84 80 80
Wind_Speed
12 11 11 10 10 10 9 9 8 8 8 8 8 7 8 9 10 2 7 13 8 11 7 5 3 4 2 3 2 4 5 1 3 1 2 1 3 3 0 1 2 2 2 7 19
14 13 13 12 11 10 9 9 8 8 8 7 7 6 7 7 2 7 13 9 11 8 4 1 3 3 3 2 2 5 4 8 5 4 1 6 5 3 1 1 2 0 6 19 21
15 14 14 13 12 11 9 8 8 7 6 5 5 5 5 4 4 9 2 16 14 7 2 4 3 2 2 2 2 3 6 6 6 4 5 7 3 4 4 5 11 14 13 19 19
16 15 14 13 12 11 9 8 7 6 5 4 4 4 4 3 1 1 7 10 12 8 2 3 2 4 3 4 2 2 6 5 4 2 2 3 2 5 8 9 5 4 12 20 21
16 16 14 13 11 10 9 8 7 6 4 4 4 2 2 1 11 3 9 12 8 7 6 4 3 3 2 3 1 5 6 5 6 5 7 5 10 9 10 14 2 7 6 16 16
16 16 14 13 11 9 7 7 6 5 4 3 4 3 1 3 5 3 9 7 5 5 5 6 7 7 2 2 4 4 4 8 4 9 6 10 8 5 11 0 5 10 6 7 10
16 15 14 12 10 8 6 5 5 4 4 4 5 2 1 16 4 4 7 7 5 6 5 5 6 3 2 8 3 3 5 6 3 3 6 5 4 10 6 11 9 5 6 9 10
17 16 15 13 10 7 5 5 4 3 4 5 5 2 9 4 2 5 2 3 4 5 3 4 3 1 4 4 8 5 4 3 6 3 4 4 9 10 6 10 10 8 7 6 3
17 16 15 13 9 5 4 4 3 4 5 7 2 1 11 4 2 6 5 3 5 3 4 3 5 4 4 4 6 7 3 2 9 5 4 3 8 8 4 9 9 8 8 8 6
18 16 14 12 8 3 3 2 5 7 3 4 4 3 5 1 3 5 6 3 2 2 1 3 5 3 4 5 6 4 2 3 4 6 1 5 11 9 4 11 14 11 12 11 9
20 16 13 11 6 3 6 4 2 0 2 10 7 6 4 5 2 2 4 6 2 5 3 2 3 7 7 6 6 3 3 5 6 3 3 9 12 17 6 7 10 12 13 11 8
20 18 14 10 5 2 1 2 5 2 9 14 12 8 4 3 5 4 6 5 6 5 1 4 7 7 5 4 4 5 4 11 8 5 6 12 13 15 9 17 21 17 15 13 8
18 16 14 9 3 1 3 7 3 3 2 8 6 6 5 9 7 9 13 6 4 6 5 8 8 5 6 5 5 6 5 8 9 10 6 6 8 6 3 4 12 13 14 16 22
18 15 11 7 0 2 5 5 6 5 5 8 3 6 3 5 5 9 9 7 1 9 6 7 7 11 6 7 8 6 9 12 10 1 6 3 7 7 3 6 8 9 10 16 13
18 15 10 6 2 1 5 8 1 5 4 4 2 1 3 8 1 1 3 5 10 8 7 11 4 4 5 9 7 11 5 8 11 6 2 4 4 10 2 3 8 12 10 12 7
19 13 5 3 1 6 8 7 5 6 2 8 5 5 1 2 5 4 2 4 3 5 4 11 3 5 9 9 9 5 4 1 4 3 4 8 8 7 5 7 6 8 12 10 10
21 13 3 1 4 6 6 5 6 4 7 8 6 8 5 9 9 10 6 18 10 9 4 13 13 6 3 5 8 5 5 5 6 2 8 7 4 9 7 9 10 13 18 17 16
23 9 5 3 7 5 4 7 7 6 5 4 6 6 7 11 7 13 7 10 16 12 5 4 10 7 4 12 14 7 11 8 7 4 9 3 7 9 13 11 6 11 15 15 17
15 2 3 10 10 2 7 8 3 6 12 12 5 6 9 7 6 5 10 11 13 14 6 8 7 10 13 5 8 4 4 8 4 4 2 6 9 6 6 9 8 10 9 18 21
3 3 4 19 8 6 8 6 5 9 8 4 6 12 9 10 10 9 6 13 10 12 6 7 10 10 9 4 5 8 6 6 1 4 8 5 6 7 7 11 9 5 13 13 15
5 5 9 18 5 9 6 6 5 13 7 8 7 7 7 6 5 7 9 8 15 13 7 6 2 10 9 3 5 5 3 3 3 6 10 11 9 7 8 9 10 8 10 19 21
4 6 10 8 9 4 5 5 7 13 9 8 5 7 4 6 5 4 5 5 12 12 7 4 4 5 8 23 8 5 10 9 3 8 4 2 10 4 4 3 5 7 9 10 12
5 2 8 5 7 4 5 8 8 11 9 5 6 6 3 4 4 6 6 4 12 12 8 7 4 9 10 4 6 8 7 13 6 3 7 3 7 2 7 8 7 12 12 14 14
6 5 7 9 3 8 5 9 4 5 10 5 4 4 4 4 3 3 9 6 14 12 12 2 2 5 9 9 10 16 17 10 4 5 10 11 11 8 13 9 5 12 16 16 15
6 2 2 4 7 9 10 4 6 5 5 9 7 6 3 5 6 5 4 10 5 6 2 2 4 7 12 14 14 21 25 18 13 11 12 19 20 8 12 12 11 4 12 13 14
7 5 5 3 4 11 8 4 10 4 6 4 5 1 4 3 4 7 7 3 6 4 2 1 4 5 16 17 18 12 12 15 16 19 14 20 21 3 12 11 8 10 12 14 17
3 3 6 5 4 5 4 5 7 5 6 6 4 4 3 4 7 13 9 8 8 3 2 0 3 3 11 7 8 10 4 8 12 4 3 4 5 13 18 15 13 9 7 11 17
Wind_Direction
336 331 328 325 322 318 312 305 298 292 286 287 299 302 305 310 299 179 245 218 188 224 2 351 54 2 35 313 106 115 69 177 259 215 237 1 88 240 57 286 359 1 120 161 143
337 335 329 325 323 318 309 303 300 294 290 288 283 290 300 316 289 253 243 210 206 141 102 90 62 11 52 279 347 97 121 206 223 162 254 186 163 217 255 108 293 157 82 126 144
340 333 328 324 320 315 308 302 298 293 291 282 280 289 297 313 307 249 210 210 197 187 204 152 109 87 84 337 223 132 185 201 260 227 203 200 208 240 111 247 223 186 154 149 160
339 334 329 322 315 307 302 297 292 293 294 270 261 274 296 251 261 301 337 179 159 161 177 116 72 113 118 202 220 159 241 225 271 146 103 203 172 240 175 235 56 194 161 154 172
339 335 329 321 312 305 304 299 295 296 286 242 229 244 243 342 252 295 70 123 116 138 162 143 145 136 163 201 293 171 251 272 255 280 219 204 209 212 220 236 290 154 176 171 178
340 336 331 323 312 302 292 291 287 289 274 224 195 164 182 260 243 145 116 122 126 129 158 146 187 207 263 247 167 199 245 282 284 286 226 164 235 154 252 192 227 164 195 143 176
339 338 335 326 317 301 289 283 276 269 247 197 179 233 196 236 31 139 145 165 174 168 162 206 179 85 94 322 255 261 317 340 292 295 264 161 157 215 235 163 210 133 163 144 179
342 339 338 334 325 300 283 267 258 231 186 168 174 256 248 249 244 157 194 204 175 197 230 173 161 151 177 242 1 3 50 344 289 5 288 130 259 258 227 156 206 164 148 124 133
343 340 340 338 327 301 256 252 236 158 143 150 147 173 267 321 223 218 174 211 145 179 269 284 133 185 52 76 11 4 244 218 308 215 252 173 261 266 147 158 178 163 150 150 134
344 340 338 339 328 257 211 140 140 120 151 214 255 336 276 280 213 188 201 177 224 140 301 160 56 78 36 80 230 239 306 296 239 292 51 301 269 271 162 167 167 160 160 163 155
344 341 341 342 341 168 119 103 41 291 228 202 195 234 284 263 219 188 159 113 311 50 192 5 80 220 228 204 190 279 255 254 261 219 337 269 266 272 204 160 168 171 167 166 151
344 340 339 344 360 140 308 209 236 176 297 228 237 256 269 57 335 306 102 142 138 208 124 353 252 217 218 180 204 242 269 277 290 249 158 271 259 273 178 183 182 176 175 170 158
339 335 333 335 344 113 210 235 139 38 312 297 186 207 209 152 209 258 157 169 147 158 185 196 228 144 187 243 220 229 206 268 232 310 212 260 284 286 176 110 191 186 183 175 176
336 331 326 322 275 216 257 270 331 168 41 285 265 283 128 164 250 208 171 140 153 197 193 235 246 236 210 232 166 264 208 246 273 355 257 144 268 294 266 138 198 186 187 196 186
334 329 321 242 181 164 271 327 280 55 56 334 64 134 146 164 256 75 190 70 189 199 129 241 211 191 209 226 148 234 229 219 247 237 203 279 121 267 300 159 214 203 216 209 203
334 330 322 111 360 246 309 311 61 43 358 351 26 352 140 273 346 11 125 47 207 193 246 231 202 182 227 263 171 243 320 82 46 115 235 223 177 261 195 206 183 227 213 186 174
334 328 205 327 310 328 329 42 44 74 324 354 338 339 40 355 8 15 20 52 30 348 297 273 253 251 196 291 286 164 74 316 311 305 235 228 176 223 229 224 207 194 207 188 172
334 335 191 198 298 325 49 55 70 345 352 2 329 334 74 8 2 14 65 28 29 4 295 259 291 187 218 203 230 188 157 167 241 248 285 315 237 254 222 225 197 201 206 175 172
324 351 56 339 337 44 70 57 46 335 327 329 337 20 16 6 358 56 65 13 26 358 358 344 278 328 303 236 155 250 170 206 207 294 332 229 288 285 220 240 227 209 180 188 183
53 47 38 339 338 58 70 100 98 0 332 16 48 17 42 0 16 21 39 18 359 354 336 351 290 269 299 293 255 186 183 252 44 215 252 251 253 238 234 245 250 221 191 175 165
49 49 322 341 38 49 79 70 49 352 28 42 23 41 65 8 341 22 21 50 14 357 29 359 248 305 338 292 284 331 290 253 233 161 247 267 258 216 231 259 254 234 194 173 169
73 54 328 350 54 41 43 6 47 0 16 52 71 57 54 347 27 89 59 35 19 12 2 3 279 279 281 301 330 29 21 48 44 305 262 223 261 253 227 220 186 120 116 115 135
83 12 316 29 91 50 56 68 84 45 28 61 45 54 359 34 48 63 25 351 20 9 358 348 322 317 304 359 32 40 355 1 287 206 250 198 274 284 258 134 147 125 119 126 124
78 44 345 26 52 110 109 32 81 39 45 40 16 60 34 46 338 8 2 342 333 323 327 32 287 259 266 296 314 303 312 328 292 284 320 278 311 315 336 334 153 139 141 145 149
37 66 235 4 11 63 70 29 27 33 58 15 26 52 38 39 343 355 272 312 285 280 357 145 242 246 268 282 299 287 289 290 264 261 258 287 286 290 313 300 277 251 151 162 173
100 103 13 46 24 53 28 30 40 20 31 37 51 12 72 126 204 278 290 261 247 321 306 335 264 277 284 275 266 275 298 282 267 262 254 266 264 3 313 314 312 185 178 173 182
353 48 98 346 24 64 20 38 37 12 69 88 3 4 328 289 275 264 244 249 242 262 279 174 324 319 280 277 291 294 241 277 277 210 269 259 312 325 328 332 338 322 287 203 183